Satellite-Ground Cal/Val Site Overpasses Predictions

Prediction of Satellite NPP Overpassing Cal/Val Site: Antarctic Dome C

Ground Cal/Val Site Location: Latitude: -75.10, Longitude: 123.35; Satellite-Ground Site NADIR distance within 100 km.

Table of predicted overpasses for the next 14.0 days since TLE Epoch: 1/28/2024
Interval Starting Time Ending Time Minimum Distance Time Minimum Distance (km)
1 01/28/2024 14:49:17 01/28/2024 14:49:46 01/28/2024 14:49:31 13.77
2 01/30/2024 07:32:06 01/30/2024 07:32:35 01/30/2024 07:32:21 2.95
3 02/02/2024 14:55:33 02/02/2024 14:56:02 02/02/2024 14:55:48 22.73
4 02/03/2024 14:36:50 02/03/2024 14:37:06 02/03/2024 14:36:58 84.37
5 02/04/2024 07:38:23 02/04/2024 07:38:50 02/04/2024 07:38:37 37.27
6 02/05/2024 07:19:38 02/05/2024 07:19:57 02/05/2024 07:19:47 72.74
7 02/07/2024 15:01:52 02/07/2024 15:02:16 02/07/2024 15:02:04 59.71
8 02/08/2024 14:43:01 02/08/2024 14:43:26 02/08/2024 14:43:13 49.61
9 02/09/2024 07:44:42 02/09/2024 07:45:02 02/09/2024 07:44:52 72.40
